Latest Coastal Weather Observations for Melbourne (Olympic Park)

IDV60701

Issued at 1:12 am EST Thursday 3 September 2026 (issued every 10 minutes, with the page automatically refreshed every 10 minutes)

About coastal observations | Map of coastal stations | Coastal observations for VIC | Marine services | Other Formats
Station Details ID: 086338 Name: MELBOURNE (OLYMPIC PARK) Lat: -37.83 Lon: 144.98 Height: 7.53 m
Data from the previous 72 hours. | See also: Recent months at Melbourne (Olympic Park)
Date/Time
EST
Wind Sea
Height
m
Swell Vis
km
Cloud Weather Temp
°C
Press
MSL
hPa
Rain since
9am
mm
Dir  Spd
kts
Gust
kts
Height
m
Period
s
Dir
03/01:00am N 4 8 - - - - 10 - - 11.2 1010.8 0.0
03/12:30am NNW 2 5 - - - - 10 - - 10.6 1010.7 0.0
03/12:00am N 5 7 - - - - 10 - - 11.5 1011.0 0.0
 
Date/Time
EST
Wind Sea
Height
m
Swell Vis
km
Cloud Weather Temp
°C
Press
MSL
hPa
Rain since
9am
mm
Dir  Spd
kts
Gust
kts
Height
m
Period
s
Dir
02/11:30pm N 5 7 - - - - 10 - - 11.8 1011.2 0.0
02/11:00pm N 5 7 - - - - 10 - - 12.1 1011.7 0.0
02/10:30pm N 6 9 - - - - 10 - - 12.5 1011.9 0.0
02/10:00pm NNW 3 5 - - - - 10 - - 12.9 1012.3 0.0
02/09:30pm N 5 9 - - - - 10 - - 13.2 1012.0 0.0
02/09:00pm NNW 7 12 - - - - 10 - - 13.5 1012.3 0.0
02/08:30pm NW 5 11 - - - - 10 - - 14.4 1012.1 0.0
02/08:00pm N 7 9 - - - - 10 - - 14.9 1011.9 0.0
02/07:30pm CALM 0 0 - - - - 10 - - 12.7 1011.7 0.0
02/07:00pm CALM 0 0 - - - - 10 - - 12.4 1011.5 0.0
02/06:30pm CALM 0 0 - - - - 10 - - 12.5 1011.4 0.0
02/06:00pm CALM 0 0 - - - - 10 - - 13.3 1011.3 0.0
02/05:30pm S 2 5 - - - - 10 - - 14.2 1011.3 0.0
02/05:00pm S 4 5 - - - - 10 - - 14.7 1011.4 0.0
02/04:30pm S 5 8 - - - - 10 - - 15.1 1011.6 0.0
02/04:00pm SSW 5 8 - - - - 10 - - 15.4 1011.9 0.0
02/03:30pm S 5 8 - - - - 10 - - 15.1 1012.2 0.0
02/03:00pm SSW 6 11 - - - - 10 - - 15.4 1012.4 0.0
02/02:30pm SSW 7 10 - - - - 10 - - 15.3 1012.5 0.0
02/02:00pm SSW 7 9 - - - - 10 - - 15.2 1012.6 0.0
02/01:30pm S 6 10 - - - - 10 - - 15.4 1012.8 0.0
02/01:00pm S 6 8 - - - - 10 - - 14.7 1013.5 0.0
02/12:30pm S 5 8 - - - - 10 - - 14.5 1014.2 0.0
02/12:00pm S 4 7 - - - - 10 - - 14.8 1014.6 0.0
02/11:30am S 4 7 - - - - 10 - - 14.3 1014.9 0.0
02/11:00am S 5 7 - - - - 10 - - 14.3 1015.2 0.0
02/10:30am SSW 6 10 - - - - 10 - - 13.8 1015.5 0.0
02/10:00am SW 4 7 - - - - 10 - - 13.7 1015.7 0.0
02/09:30am SW 4 9 - - - - 10 - - 13.3 1015.8 0.0
02/09:00am SW 6 12 - - - - 10 - - 13.3 1015.8 0.0
02/08:30am WSW 7 13 - - - - 10 - - 12.8 1015.8 0.0
02/08:00am SW 5 9 - - - - 10 - - 12.7 1015.4 0.0
02/07:30am SW 7 12 - - - - 10 - - 12.6 1015.0 0.0
02/07:00am WSW 5 8 - - - - 10 - - 12.5 1014.8 0.0
02/06:30am SW 5 8 - - - - 10 - - 12.8 1014.5 0.0
02/06:00am W 5 8 - - - - 10 - - 12.8 1014.2 0.0
02/05:30am SW 4 7 - - - - 10 - - 13.0 1014.0 0.0
02/05:00am SSW 5 10 - - - - 10 - - 13.2 1013.7 0.0
02/04:30am SW 5 10 - - - - 10 - - 13.6 1013.4 0.0
02/04:00am SW 7 12 - - - - 10 - - 14.5 1012.8 0.0
02/03:30am N 3 5 - - - - 10 - - 16.3 1012.2 0.0
02/03:00am NNW 4 5 - - - - 10 - - 16.3 1012.2 0.0
02/02:30am N 4 8 - - - - 10 - - 16.3 1012.6 0.0
02/02:00am N 6 10 - - - - 10 - - 16.4 1012.7 0.0
02/01:30am N 7 10 - - - - 10 - - 16.6 1012.6 0.0
02/01:00am N 7 11 - - - - 10 - - 16.9 1012.6 0.0
02/12:30am NNW 5 11 - - - - 10 - - 17.1 1012.6 0.0
02/12:00am NNW 8 14 - - - - 10 - Rain 17.5 1012.4 0.0
 
Date/Time
EST
Wind Sea
Height
m
Swell Vis
km
Cloud Weather Temp
°C
Press
MSL
hPa
Rain since
9am
mm
Dir  Spd
kts
Gust
kts
Height
m
Period
s
Dir
01/11:30pm NNW 8 13 - - - - 10 - - 18.1 1012.6 0.0
01/11:00pm NNW 10 18 - - - - 10 - - 18.2 1012.7 0.0
01/10:30pm NNW 8 14 - - - - 10 - - 18.4 1012.9 0.0
01/10:00pm N 10 20 - - - - 10 - - 18.7 1012.7 0.0
01/09:30pm NNW 10 16 - - - - 10 - - 19.0 1012.6 0.0
01/09:00pm N 9 15 - - - - 10 - Rain 19.0 1012.6 0.0
01/08:30pm N 11 19 - - - - 10 - - 18.7 1012.5 0.0
01/08:00pm N 9 15 - - - - 10 - - 19.1 1012.5 0.0
01/07:30pm N 9 15 - - - - 10 - - 19.4 1012.4 0.0
01/07:00pm N 9 17 - - - - 10 - - 19.7 1012.6 0.0
01/06:30pm N 8 15 - - - - 10 - - 20.0 1013.0 0.0
01/06:00pm N 8 13 - - - - 10 - - 20.3 1013.3 0.0
01/05:30pm NNW 9 16 - - - - 10 - - 20.3 1013.8 0.0
01/05:00pm NNW 8 12 - - - - 10 - - 20.5 1013.6 0.0
01/04:30pm NNW 10 16 - - - - 10 - - 20.7 1013.5 0.0
01/04:00pm N 11 18 - - - - 10 - - 21.0 1013.2 0.0
01/03:30pm N 13 25 - - - - 10 - - 20.9 1013.0 0.0
01/03:20pm N 13 23 - - - - 10 - - 21.0 1013.1 0.0
01/03:00pm N 15 25 - - - - 10 - - 21.1 1013.0 0.0
01/02:30pm N 15 24 - - - - 10 - - 21.7 1013.8 0.0
01/02:12pm NNW 15 27 - - - - 10 - - 21.2 1014.4 0.0
01/02:00pm NNW 15 24 - - - - 10 - - 21.6 1014.4 0.0
01/01:30pm NNW 10 19 - - - - 10 - - 21.5 1015.2 0.0
01/01:15pm NNW 15 24 - - - - 10 - - 21.1 1015.4 0.0
01/01:00pm NNW 15 26 - - - - 10 - - 21.2 1015.6 0.0
01/12:53pm NNW 15 28 - - - - 10 - - 21.2 1015.7 0.0
01/12:50pm NNW 14 28 - - - - 10 - - 21.0 1015.8 0.0
01/12:35pm NNW 15 30 - - - - 10 - - 21.1 1016.1 0.0
01/12:30pm NNW 13 22 - - - - 10 - - 21.3 1016.2 0.0
01/12:00pm N 9 17 - - - - 10 - - 20.4 1016.9 0.0
01/11:30am N 13 21 - - - - 10 - - 19.8 1017.3 0.0
01/11:07am N 11 22 - - - - 10 - - 18.9 1017.6 0.0
01/11:00am N 13 25 - - - - 10 - - 18.6 1017.6 0.0
01/10:36am N 15 26 - - - - 10 - - 17.7 1018.1 0.0
01/10:30am N 14 22 - - - - 10 - - 17.8 1018.4 0.0
01/10:21am N 14 24 - - - - 10 - - 17.3 1018.6 0.0
01/10:10am N 15 25 - - - - 10 - - 17.1 1018.8 0.0
01/10:00am N 14 25 - - - - 10 - - 17.1 1019.0 0.0
01/09:30am N 13 21 - - - - 10 - - 16.4 1019.8 0.0
01/09:00am N 12 21 - - - - 10 - - 15.6 1020.6 0.0
01/08:30am N 10 19 - - - - 10 - - 15.1 1021.0 0.0
01/08:00am N 11 18 - - - - 10 - - 14.2 1021.2 0.0
01/07:30am N 10 16 - - - - 10 - - 13.6 1021.0 0.0
01/07:00am N 7 12 - - - - 10 - - 13.2 1020.9 0.0
01/06:30am N 6 10 - - - - 10 - - 13.1 1021.0 0.0
01/06:00am N 7 11 - - - - 10 - - 13.4 1021.1 0.0
01/05:30am N 10 16 - - - - 10 - - 13.8 1021.2 0.0
01/05:00am N 10 17 - - - - 10 - - 14.1 1021.4 0.0
01/04:30am N 11 18 - - - - 10 - - 14.2 1021.5 0.0
01/04:00am N 10 14 - - - - 10 - - 14.1 1021.9 0.0
01/03:30am N 6 9 - - - - 10 - - 13.7 1022.2 0.0
01/03:00am NNW 7 12 - - - - 10 - - 13.6 1022.6 0.0
01/02:30am NNE 5 7 - - - - 10 - - 12.5 1023.1 0.0
01/02:00am N 6 9 - - - - 10 - - 12.9 1023.5 0.0
01/01:30am NNE 4 5 - - - - 10 - - 11.8 1023.8 0.0
01/01:00am N 3 5 - - - - 10 - - 11.7 1024.0 0.0
01/12:30am N 3 5 - - - - 10 - - 10.7 1024.4 0.0
01/12:00am NNE 4 6 - - - - 10 - - 10.9 1025.0 0.0
 
Date/Time
EST
Wind Sea
Height
m
Swell Vis
km
Cloud Weather Temp
°C
Press
MSL
hPa
Rain since
9am
mm
Dir  Spd
kts
Gust
kts
Height
m
Period
s
Dir
31/11:30pm NNE 5 6 - - - - 10 - - 11.2 1025.4 0.0
31/11:00pm NNE 5 6 - - - - 10 - - 11.4 1025.9 0.0
31/10:30pm CALM 0 3 - - - - 10 - - 10.1 1026.2 0.0
31/10:00pm CALM 0 0 - - - - 10 - - 9.9 1026.3 0.0
31/09:30pm CALM 0 0 - - - - 10 - - 10.0 1026.5 0.0
31/09:00pm CALM 0 0 - - - - 10 - - 10.2 1026.6 0.0
31/08:30pm CALM 0 0 - - - - 10 - - 10.4 1026.8 0.0
31/08:00pm CALM 0 0 - - - - 10 - - 10.7 1026.8 0.0
31/07:30pm CALM 0 0 - - - - 10 - - 11.0 1027.0 0.0
31/07:00pm CALM 0 0 - - - - 10 - - 11.3 1027.1 0.0
31/06:30pm CALM 0 0 - - - - 10 - - 12.0 1027.2 0.0
31/06:00pm CALM 0 0 - - - - 10 - - 12.8 1027.3 0.0
31/05:30pm SW 1 4 - - - - 10 - - 13.8 1027.3 0.0
31/05:00pm SW 2 5 - - - - 10 - - 14.8 1027.4 0.0
31/04:30pm SW 4 6 - - - - 10 - - 15.1 1027.7 0.0
31/04:00pm SW 4 6 - - - - 10 - - 15.7 1027.9 0.0
31/03:30pm SW 4 6 - - - - 10 - - 15.7 1028.1 0.0
31/03:00pm SSW 5 7 - - - - 10 - - 14.9 1028.5 0.0
31/02:30pm SSW 5 6 - - - - 10 - - 14.9 1029.0 0.0
31/02:00pm SSW 5 7 - - - - 10 - - 14.5 1029.5 0.0
31/01:30pm S 3 5 - - - - 10 - - 14.3 1030.0 0.0
31/01:00pm SSW 5 7 - - - - 10 - - 13.3 1030.5 0.0
31/12:30pm SW 5 8 - - - - 10 - - 13.6 1031.1 0.0
31/12:00pm WSW 5 8 - - - - 10 - - 12.8 1031.6 0.0
31/11:30am S 4 7 - - - - 10 - - 13.2 1032.0 0.0
31/11:00am S 4 6 - - - - 10 - - 13.0 1032.2 0.0
31/10:30am SSW 4 6 - - - - 10 - - 12.2 1032.5 0.0
31/10:00am SW 4 7 - - - - 10 - - 12.0 1032.6 0.0
31/09:30am S 4 6 - - - - 10 - - 11.6 1032.6 0.0
31/09:00am SSW 3 5 - - - - 10 - - 11.4 1032.5 0.0
31/08:30am SSW 3 5 - - - - 10 - - 11.2 1032.7 0.0
31/08:00am S 1 4 - - - - 10 - - 11.1 1032.6 0.0
31/07:30am SSW 1 3 - - - - 10 - - 10.8 1032.4 0.0
31/07:00am CALM 0 0 - - - - 10 - - 10.8 1032.3 0.0
31/06:30am CALM 0 3 - - - - 10 - - 10.7 1032.3 0.0
31/06:00am SE 2 4 - - - - 10 - - 10.7 1032.1 0.0
31/05:30am S 3 5 - - - - 10 - - 10.8 1032.1 0.0
31/05:00am SSW 4 7 - - - - 10 - - 11.0 1032.1 0.0
31/04:30am SSW 2 6 - - - - 10 - - 11.2 1032.1 0.0
31/04:00am SW 3 6 - - - - 10 - - 11.4 1032.0 0.0
31/03:30am CALM 0 0 - - - - 10 - - 11.5 1032.3 0.0
31/03:00am CALM 0 0 - - - - 10 - - 11.6 1032.4 0.0
31/02:30am NE 2 4 - - - - 10 - - 11.8 1032.5 0.0
31/02:00am CALM 0 0 - - - - 10 - - 11.7 1032.7 0.0
31/01:30am NE 3 4 - - - - 10 - - 11.8 1032.7 0.0

Other formats

Comma delimited format used in spreadsheet applications
http://www.bom.gov.au/fwo/IDV60701/IDV60701.95936.axf

JavaScript Object Notation format (JSON) in row-major order
http://www.bom.gov.au/fwo/IDV60701/IDV60701.95936.json

Data quality

Most of these data are generated automatically and are frequently updated. Quality checks on data are not normally performed. It is possible for incorrect values to appear. Refer to information at About Latest Weather Observations and please check the disclaimer before using these data.